Location: Campillo
(40.8621°N, 4.2488°W)
Time: 19:07:06
(UTC+00:00)

Cosmos 2154 Rocket - Pass Details

Date: 02 October 2021
Orbit: 965 x 997 km, 82.9° (Epoch: 21 October)

Event Time Altitude Azimuth Distance (km) Brightness Sun altitude
Rises 20:32:11 0° 249° (WSW) 3,709 7.7 -29.6°
Reaches altitude 10° 20:37:43 10° 288° (WNW) 2,764 7.3 -30.5°
Maximum altitude 20:38:44 10° 298° (WNW) 2,736 7.2 -30.7°
Drops below altitude 10° 20:39:46 10° 307° (NW) 2,765 7.2 -30.9°
Sets 20:45:20 0° 347° (NNW) 3,714 7.5 -31.8°
